Time,TemperatureF,DewpointF,PressureIn,WindDirection,WindDirectionDegrees,WindSpeedMPH,WindSpeedGustMPH,Humidity,HourlyPrecipIn,Conditions,Clouds,dailyrainin,SoftwareType,DateUTC
2013-02-02 03:00:00,27.0,24.0,-100.00,ESE,120,10.0,18.0,90,0.00,,,-99.99,,2013-02-02 11:00:00,
2013-02-02 05:00:00,28.0,24.0,-100.00,SE,126,10.0,13.0,83,0.00,,,-99.99,,2013-02-02 13:00:00,
2013-02-02 07:00:00,28.0,22.0,-100.00,SE,127,10.0,13.0,79,0.00,,,-99.99,,2013-02-02 15:00:00,
2013-02-02 08:00:00,28.0,23.0,-100.00,ESE,123,10.0,13.0,81,0.00,,,-99.99,,2013-02-02 16:00:00,
2013-02-02 08:52:00,28.0,23.0,-100.00,ESE,123,10.0,13.0,81,0.00,,,-99.99,,2013-02-02 16:52:00,
2013-02-02 10:00:00,33.0,26.0,-100.00,ESE,115,12.0,18.0,76,0.00,,,-99.99,,2013-02-02 18:00:00,
2013-02-02 11:00:00,35.0,27.0,-100.00,SE,124,10.0,14.0,72,0.00,,,-99.99,,2013-02-02 19:00:00,
2013-02-02 11:52:00,35.0,27.0,-100.00,SE,124,10.0,14.0,72,0.00,,,-99.99,,2013-02-02 19:52:00,
2013-02-02 12:00:00,38.0,31.0,-100.00,ESE,115,9.0,13.0,76,0.00,,,-99.99,,2013-02-02 20:00:00,
2013-02-02 13:00:00,37.0,34.0,-100.00,ESE,120,7.0,10.0,87,0.00,,,-99.99,,2013-02-02 21:00:00,
2013-02-02 14:00:00,37.0,34.0,-100.00,SE,124,6.0,8.0,87,0.00,,,-99.99,,2013-02-02 22:00:00,
2013-02-02 14:52:00,37.0,34.0,-100.00,SE,124,6.0,8.0,87,0.00,,,-99.99,,2013-02-02 22:52:00,
2013-02-02 15:00:00,37.0,28.0,-100.00,SE,138,5.0,8.0,70,0.00,,,-99.99,,2013-02-02 23:00:00,
2013-02-02 17:00:00,34.0,25.0,-100.00,WSW,238,3.0,3.0,68,0.00,,,-99.99,,2013-02-03 01:00:00,
2013-02-02 18:00:00,34.0,23.0,-100.00,NW,308,7.0,10.0,63,0.00,,,-99.99,,2013-02-03 02:00:00,
2013-02-02 19:00:00,33.0,22.0,-100.00,WNW,295,7.0,9.0,64,0.00,,,-99.99,,2013-02-03 03:00:00,
2013-02-02 20:00:00,30.0,26.0,-100.00,West,280,9.0,20.0,85,0.00,,,-99.99,,2013-02-03 04:00:00,
2013-02-02 21:00:00,30.0,26.0,-100.00,West,276,9.0,14.0,85,0.00,,,-99.99,,2013-02-03 05:00:00,
2013-02-02 22:00:00,31.0,26.0,-100.00,WNW,283,7.0,13.0,80,0.00,,,-99.99,,2013-02-03 06:00:00,
2013-02-02 23:00:00,31.0,23.0,-100.00,West,280,7.0,12.0,72,0.00,,,-99.99,,2013-02-03 07:00:00,